Location: *
(37.6304°S, 90.4141°E)
Time: 02:35:06
(UTC+00:00)

Daily predictions for brighter satellites

Satellite Brightness Start Highest point End
(mag) Time Altitude Azimuth Time Altitude Azimuth Time Altitude Azimuth
Spot 1 4.4 00:01:15 10° S 00:06:02 59° WSW 00:10:59 10° NNW
SL-08 R/B 4.5 00:02:55 10° SSW 00:06:24 21° WSW 00:09:52 10° WNW
CENTAUR R/B 3.4 00:01:50 10° SSW 00:06:54 35° SE 00:11:28 10° ENE
Cosmos 1862 4.2 00:04:39 10° SSW 00:08:14 29° W 00:11:46 10° NNW
Meteor 2-2 Rocket 4.5 00:08:50 10° NNW 00:14:40 55° WSW 00:20:40 10° S
SL-08 RB Rocket 3.8 00:10:51 10° NNE 00:15:31 87° ESE 00:20:12 10° SSW
BREEZE-M DEB (TANK) 3.8 00:13:46 11° SW 00:16:32 54° SE 00:23:38 10° ENE
Cosmos 2221 2.5 00:12:27 10° NNW 00:16:44 63° W 00:21:08 10° S
CZ-2D R/B 4.2 00:16:17 10° NNW 00:19:33 27° W 00:22:53 10° SW
Cosmos 1842 Rocket 3.6 00:15:09 10° N 00:19:39 80° W 00:24:14 10° S
Radarsat Rocket 4.1 00:14:57 10° N 00:20:37 55° WNW 00:26:36 10° SSW
CZ-4B R/B 4.2 00:20:04 10° NW 00:22:36 17° W 00:25:08 10° SW
SL-4 R/B 3.9 00:23:10 10° SSW 00:25:34 17° SSE 00:28:01 10° ESE
MOS 1-B 4.5 00:21:06 10° NNE 00:26:54 85° ESE 00:32:47 10° SSW
IRIDIUM 106 4.5 00:21:49 10° S 00:27:09 86° E 00:32:23 10° N
COSMO-SKYMED 1 2.7 00:23:00 10° S 00:27:19 54° WSW 00:31:35 10° NNW
Cosmos 2285 Rocket 4.3 00:21:57 10° SSW 00:28:02 50° WNW 00:34:06 10° N
CZ-2C R/B 3.5 00:25:32 10° SSW 00:29:51 26° WSW 00:34:06 10° WNW
H-2A R/B 3.1 00:26:20 10° NNW 00:30:43 26° W 00:35:03 10° SW
YAOGAN 1 3.7 00:28:52 10° NNE 00:33:02 47° ESE 00:37:16 10° S
Cosmos 1400 Rocket 4.1 00:30:12 10° S 00:34:12 46° ESE 00:38:06 10° NNE
USA 234 3.6 00:29:11 10° ENE 00:35:38 66° SE 00:42:11 10° SW
ADEOS 4.5 11:10:52 10° SE 11:15:29 30° E 11:20:02 10° NNE
COSMO-SKYMED 1 2.7 11:15:30 10° NNE 11:19:52 90° W 11:24:19 10° SSW
Cosmos 2360 4.2 11:14:37 10° SSW 11:20:23 71° ESE 11:26:03 10° NNE
USA 215 4.1 11:18:00 10° E 11:23:32 30° SSE 11:29:06 10° SSW
Cosmos 1782 3.3 11:21:14 10° S 11:25:00 39° E 11:28:43 10° NNE
USA 305 3.6 11:26:45 10° SSW 11:30:36 33° SE 11:34:25 10° E
Cosmos 1000 Rocket 4.5 11:25:46 10° N 11:31:55 82° E 11:38:12 10° S
Cosmos 1933 3.3 11:30:36 10° S 11:34:42 72° E 11:38:45 10° NNE
CBERS 1 LM4 rocket 4.4 11:29:49 10° SSE 11:34:43 77° ENE 11:39:41 10° N
Cosmos 1939 Rocket 2.8 11:32:23 10° SSE 11:36:16 58° E 11:40:05 10° N
SL-16 R/B 3.8 11:34:21 10° SSE 11:37:23 14° SE 11:39:15 12° ESE
COSMOS 2406 3.9 11:33:32 10° NW 11:39:07 57° WSW 11:44:45 10° SSE
Meteor PRIRODA 4.4 11:36:21 10° SSE 11:39:45 33° E 11:43:09 10° NNE
Cosmos 1076 Rocket 4.4 11:39:24 10° NNW 11:43:40 54° W 11:48:00 10° S
Cosmos 1992 Rocket 4.3 11:39:47 10° NNW 11:45:00 70° WSW 11:50:17 10° SSE
Cosmos 1833 Rocket 4.4 11:40:43 10° WNW 11:45:40 30° WSW 11:50:40 10° S
SMAP 3.6 11:42:02 10° SSE 11:46:25 37° E 11:50:44 10° NNE
Cosmos 1151 Rocket 4.2 11:43:21 10° SSE 11:46:51 22° ESE 11:50:17 10° NE
Cosmos 1486 Rocket 4.0 11:45:56 10° SSW 11:51:20 69° ESE 11:56:39 10° NNE
ATLAS CENTAUR R/B 3.9 11:50:24 10° NNE 11:52:49 13° NE 11:54:08 11° ENE
DMSP B5D1-3 4.5 11:48:09 10° NNE 11:53:17 68° ESE 11:58:28 10° S
SL-8 R/B 3.7 11:48:37 10° NW 11:53:25 81° NE 11:56:54 19° ESE
CZ-2D R/B 3.9 11:50:59 12° SE 11:54:06 33° E 11:57:36 10° NNE
Cosmos 1812 2.6 11:50:50 10° S 11:54:43 67° E 11:58:32 10° NNE
CZ-4C R/B 3.8 11:52:58 10° NE 11:55:42 26° ESE 11:58:31 10° SSE
